This is the latest recevied weather packets stored in our database for station/object CE3MXM-12. If no packets are shown the sender has not sent any weather packets the latest 10 day(s).
| Time | Temp. | Humidity | Pressure | Rain* | Wind** | Luminosity | Snow |
|---|---|---|---|---|---|---|---|
| 1777742021 | 23.33° C | 36% | 1014.7 hPa | - | - | - | - |
| 1777741721 | 22.78° C | 37% | 1014.8 hPa | - | - | - | - |
| 1777741421 | 23.33° C | 36% | 1014.9 hPa | - | - | - | - |
| 1777741121 | 22.78° C | 37% | 1014.9 hPa | - | - | - | - |
| 1777740821 | 22.78° C | 37% | 1015 hPa | - | - | - | - |
| 1777740521 | 22.78° C | 37% | 1015.2 hPa | - | - | - | - |
| 1777740221 | 22.22° C | 38% | 1015.2 hPa | - | - | - | - |
| 1777739921 | 22.22° C | 38% | 1015.2 hPa | - | - | - | - |
| 1777739620 | 22.22° C | 38% | 1015.4 hPa | - | - | - | - |
| 1777739320 | 22.22° C | 38% | 1015.5 hPa | - | - | - | - |
| 1777739020 | 21.67° C | 39% | 1015.5 hPa | - | - | - | - |
| 1777738720 | 21.67° C | 39% | 1015.3 hPa | - | - | - | - |
| 1777738420 | 21.67° C | 39% | 1015.4 hPa | - | - | - | - |
| 1777738120 | 21.67° C | 39% | 1015.6 hPa | - | - | - | - |
| 1777737820 | 21.11° C | 40% | 1015.8 hPa | - | - | - | - |
| 1777737520 | 20.56° C | 41% | 1015.9 hPa | - | - | - | - |
| 1777737220 | 20.56° C | 42% | 1015.9 hPa | - | - | - | - |
| 1777736920 | 20.56° C | 42% | 1015.8 hPa | - | - | - | - |
| 1777736620 | 20° C | 42% | 1015.9 hPa | - | - | - | - |
| 1777736320 | 20° C | 44% | 1015.9 hPa | - | - | - | - |
| 1777736019 | 20° C | 44% | 1015.9 hPa | - | - | - | - |
| 1777735719 | 19.44° C | 45% | 1015.8 hPa | - | - | - | - |
| 1777735419 | 18.89° C | 48% | 1015.8 hPa | - | - | - | - |
| 1777735119 | 18.33° C | 47% | 1015.9 hPa | - | - | - | - |
| 1777734819 | 18.33° C | 48% | 1016 hPa | - | - | - | - |
* Rain since midnight (hover to see other rain measurements)
** Current wind speed in m/s (hover to see current wind gust speed)